Wetterdaten: Samstag, 16.04.2016
Datum Zeit Auen-Temp. Temp gefhlt Luftfeuchte Luftdruck Regen Wind Richtung Richtung Sonnenschein Taupunkt Windben
16.04.2016 00:00 7,3 C 7,1 C 86 % 1008,9 hPa 0,0 mm 2,7 km/h (1 Bft) O-SO 112 0 min 5,1 C 0,0 km/h (0 Bft)
16.04.2016 00:05 7,1 C 6,9 C 86 % 1008,9 hPa 0,0 mm 0,3 km/h (0 Bft) W-SW 247 0 min 4,9 C 0,0 km/h (0 Bft)
16.04.2016 00:10 7,0 C 6,8 C 86 % 1008,8 hPa 0,0 mm 0,0 km/h (0 Bft) SO 135 0 min 4,8 C 0,0 km/h (0 Bft)
16.04.2016 00:15 7,1 C 6,9 C 86 % 1008,8 hPa 0,0 mm 0,0 km/h (0 Bft) SO 135 0 min 4,9 C 0,0 km/h (0 Bft)
16.04.2016 00:20 7,1 C 6,9 C 86 % 1008,8 hPa 0,0 mm 0,3 km/h (0 Bft) O-SO 112 0 min 4,9 C 0,0 km/h (0 Bft)
16.04.2016 00:25 7,1 C 6,9 C 86 % 1008,8 hPa 0,0 mm 0,3 km/h (0 Bft) S-SO 157 0 min 4,9 C 0,0 km/h (0 Bft)
16.04.2016 00:30 7,1 C 6,9 C 86 % 1008,8 hPa 0,0 mm 0,0 km/h (0 Bft) O-NO 67 0 min 4,9 C 0,0 km/h (0 Bft)
16.04.2016 00:35 6,9 C 6,7 C 86 % 1008,8 hPa 0,0 mm 0,0 km/h (0 Bft) O-SO 112 0 min 4,7 C 0,0 km/h (0 Bft)
16.04.2016 00:40 6,9 C 6,7 C 86 % 1008,8 hPa 0,0 mm 0,6 km/h (0 Bft) SW 225 0 min 4,7 C 9,8 km/h (2 Bft)
16.04.2016 00:45 6,9 C 6,7 C 86 % 1008,8 hPa 0,0 mm 2,1 km/h (1 Bft) S 180 0 min 4,7 C 5,1 km/h (1 Bft)
16.04.2016 00:50 6,9 C 6,7 C 86 % 1008,9 hPa 0,0 mm 3,3 km/h (1 Bft) S 180 0 min 4,7 C 3,9 km/h (1 Bft)
16.04.2016 00:51 0,0 C 6,7 C 86 % 1008,9 hPa 0,0 mm 3,3 km/h (1 Bft) S 180 0 min -2,1 C 3,9 km/h (1 Bft)
16.04.2016 00:55 0,0 C 6,7 C 86 % 1008,9 hPa 0,0 mm 2,7 km/h (1 Bft) S 180 0 min -2,1 C 4,8 km/h (1 Bft)
16.04.2016 01:00 0,0 C 6,7 C 86 % 1008,9 hPa 0,0 mm 2,1 km/h (1 Bft) S 180 0 min -2,1 C 0,0 km/h (0 Bft)
16.04.2016 01:05 0,0 C 6,8 C 86 % 1008,9 hPa 0,0 mm 2,7 km/h (1 Bft) S 180 0 min -2,1 C 6,3 km/h (2 Bft)
16.04.2016 01:10 0,0 C 6,8 C 86 % 1008,9 hPa 0,0 mm 2,4 km/h (1 Bft) S-SO 157 0 min -2,1 C 3,3 km/h (1 Bft)
16.04.2016 01:15 0,0 C 6,6 C 86 % 1008,9 hPa 0,0 mm 1,5 km/h (1 Bft) O-SO 112 0 min -2,1 C 3,0 km/h (1 Bft)
16.04.2016 01:20 0,0 C 6,5 C 86 % 1008,9 hPa 0,0 mm 0,6 km/h (0 Bft) S-SO 157 0 min -2,1 C 0,0 km/h (0 Bft)
16.04.2016 01:25 0,0 C 6,2 C 86 % 1008,9 hPa 0,0 mm 0,0 km/h (0 Bft) SO 135 0 min -2,1 C 0,0 km/h (0 Bft)
16.04.2016 01:30 0,0 C 6,1 C 86 % 1008,4 hPa 0,0 mm 0,0 km/h (0 Bft) O-NO 67 0 min -2,1 C 0,0 km/h (0 Bft)
16.04.2016 01:35 0,0 C 6,0 C 86 % 1008,4 hPa 0,0 mm 0,0 km/h (0 Bft) O-NO 67 0 min -2,1 C 0,0 km/h (0 Bft)
16.04.2016 01:40 0,0 C 5,9 C 85 % 1008,4 hPa 0,0 mm 0,0 km/h (0 Bft) O-NO 67 0 min -2,2 C 0,0 km/h (0 Bft)
16.04.2016 01:45 0,0 C 5,7 C 86 % 1008,4 hPa 0,0 mm 0,0 km/h (0 Bft) O-NO 67 0 min -2,1 C 0,0 km/h (0 Bft)
16.04.2016 01:50 0,0 C 5,7 C 86 % 1007,7 hPa 0,0 mm 0,0 km/h (0 Bft) NO 45 0 min -2,1 C 0,0 km/h (0 Bft)
16.04.2016 01:55 0,0 C 5,6 C 86 % 1007,7 hPa 0,0 mm 0,0 km/h (0 Bft) N 360 0 min -2,1 C 0,0 km/h (0 Bft)
16.04.2016 02:00 0,0 C 5,6 C 86 % 1007,7 hPa 0,0 mm 0,0 km/h (0 Bft) N-NO 22 0 min -2,1 C 0,0 km/h (0 Bft)
16.04.2016 02:05 0,0 C 5,7 C 86 % 1007,7 hPa 0,0 mm 0,3 km/h (0 Bft) NO 45 0 min -2,1 C 0,0 km/h (0 Bft)
16.04.2016 02:10 0,0 C 5,7 C 86 % 1008,1 hPa 0,0 mm 0,3 km/h (0 Bft) NO 45 0 min -2,1 C 0,0 km/h (0 Bft)
16.04.2016 02:15 0,0 C 5,8 C 86 % 1008,1 hPa 0,0 mm 0,3 km/h (0 Bft) O 90 0 min -2,1 C 0,0 km/h (0 Bft)
16.04.2016 02:20 0,0 C 5,9 C 87 % 1008,1 hPa 0,0 mm 0,3 km/h (0 Bft) O-NO 67 0 min -1,9 C 0,0 km/h (0 Bft)
16.04.2016 02:25 0,0 C 5,8 C 87 % 1008,1 hPa 0,0 mm 0,0 km/h (0 Bft) SW 225 0 min -1,9 C 0,0 km/h (0 Bft)
16.04.2016 02:30 0,0 C 5,7 C 88 % 1007,7 hPa 0,0 mm 0,0 km/h (0 Bft) S 180 0 min -1,7 C 0,0 km/h (0 Bft)
16.04.2016 02:35 0,0 C 5,5 C 88 % 1007,7 hPa 0,0 mm 0,0 km/h (0 Bft) NW 315 0 min -1,7 C 0,0 km/h (0 Bft)
16.04.2016 02:40 0,0 C 5,3 C 87 % 1007,7 hPa 0,0 mm 0,0 km/h (0 Bft) NW 315 0 min -1,9 C 0,0 km/h (0 Bft)
16.04.2016 02:45 0,0 C 5,1 C 87 % 1007,7 hPa 0,0 mm 0,0 km/h (0 Bft) O 90 0 min -1,9 C 0,0 km/h (0 Bft)
16.04.2016 02:50 0,0 C 4,9 C 87 % 1007,5 hPa 0,0 mm 0,3 km/h (0 Bft) S-SO 157 0 min -1,9 C 4,2 km/h (1 Bft)
16.04.2016 02:55 0,0 C 4,8 C 88 % 1007,5 hPa 0,0 mm 0,3 km/h (0 Bft) N-NO 22 0 min -1,7 C 0,0 km/h (0 Bft)
16.04.2016 03:00 0,0 C 4,5 C 88 % 1007,5 hPa 0,0 mm 0,3 km/h (0 Bft) S-SO 157 0 min -1,7 C 0,0 km/h (0 Bft)
16.04.2016 03:05 0,0 C 4,5 C 88 % 1007,5 hPa 0,0 mm 0,0 km/h (0 Bft) O-NO 67 0 min -1,7 C 0,0 km/h (0 Bft)
16.04.2016 03:10 0,0 C 4,2 C 88 % 1007,2 hPa 0,0 mm 0,0 km/h (0 Bft) O-NO 67 0 min -1,7 C 0,0 km/h (0 Bft)
16.04.2016 03:15 0,0 C 4,2 C 88 % 1007,2 hPa 0,0 mm 0,0 km/h (0 Bft) O-NO 67 0 min -1,7 C 0,0 km/h (0 Bft)
16.04.2016 03:20 0,0 C 4,0 C 88 % 1007,2 hPa 0,0 mm 0,0 km/h (0 Bft) N-NW 337 0 min -1,7 C 0,0 km/h (0 Bft)
16.04.2016 03:25 0,0 C 3,6 C 88 % 1007,2 hPa 0,0 mm 0,0 km/h (0 Bft) NO 45 0 min -1,7 C 0,0 km/h (0 Bft)
16.04.2016 03:30 0,0 C 3,5 C 88 % 1007,0 hPa 0,0 mm 0,0 km/h (0 Bft) NO 45 0 min -1,7 C 0,0 km/h (0 Bft)
16.04.2016 03:35 0,0 C 3,4 C 88 % 1007,0 hPa 0,0 mm 0,0 km/h (0 Bft) SO 135 0 min -1,7 C 0,0 km/h (0 Bft)
16.04.2016 03:40 0,0 C 3,4 C 88 % 1007,0 hPa 0,0 mm 0,0 km/h (0 Bft) O-NO 67 0 min -1,7 C 3,3 km/h (1 Bft)
16.04.2016 03:45 0,0 C 3,2 C 88 % 1007,0 hPa 0,0 mm 0,0 km/h (0 Bft) O 90 0 min -1,7 C 0,0 km/h (0 Bft)
16.04.2016 03:50 0,0 C 3,1 C 88 % 1007,1 hPa 0,0 mm 0,0 km/h (0 Bft) SW 225 0 min -1,7 C 0,0 km/h (0 Bft)
16.04.2016 03:52 0,0 C 3,1 C 88 % 1007,1 hPa 0,0 mm 0,0 km/h (0 Bft) SW 225 0 min -1,7 C 0,0 km/h (0 Bft)
16.04.2016 03:55 0,0 C 3,5 C 89 % 1007,1 hPa 0,0 mm 0,3 km/h (0 Bft) S-SW 202 0 min -1,6 C 3,9 km/h (1 Bft)
16.04.2016 04:00 0,0 C 3,5 C 89 % 1007,1 hPa 0,0 mm 0,6 km/h (0 Bft) SO 135 0 min -1,6 C 0,0 km/h (0 Bft)
16.04.2016 04:05 0,0 C 3,3 C 89 % 1007,1 hPa 0,0 mm 0,6 km/h (0 Bft) S 180 0 min -1,6 C 0,0 km/h (0 Bft)
16.04.2016 04:10 0,0 C 3,2 C 89 % 1006,9 hPa 0,0 mm 0,0 km/h (0 Bft) S 180 0 min -1,6 C 0,0 km/h (0 Bft)
16.04.2016 04:15 0,0 C 3,4 C 89 % 1006,9 hPa 0,0 mm 1,5 km/h (1 Bft) W-SW 247 0 min -1,6 C 0,0 km/h (0 Bft)
16.04.2016 04:20 0,0 C 3,1 C 89 % 1006,9 hPa 0,0 mm 1,5 km/h (1 Bft) NW 315 0 min -1,6 C 0,0 km/h (0 Bft)
16.04.2016 04:25 0,0 C 3,0 C 89 % 1006,9 hPa 0,0 mm 0,0 km/h (0 Bft) S 180 0 min -1,6 C 0,0 km/h (0 Bft)
16.04.2016 04:30 0,0 C 3,1 C 89 % 1006,8 hPa 0,0 mm 0,0 km/h (0 Bft) NW 315 0 min -1,6 C 0,0 km/h (0 Bft)
16.04.2016 04:35 0,0 C 2,6 C 89 % 1006,8 hPa 0,0 mm 0,0 km/h (0 Bft) N 360 0 min -1,6 C 0,0 km/h (0 Bft)
16.04.2016 04:40 0,0 C 2,6 C 89 % 1006,8 hPa 0,0 mm 0,0 km/h (0 Bft) SO 135 0 min -1,6 C 0,0 km/h (0 Bft)
16.04.2016 04:45 0,0 C 2,5 C 90 % 1006,8 hPa 0,0 mm 0,0 km/h (0 Bft) NW 315 0 min -1,4 C 0,0 km/h (0 Bft)
16.04.2016 04:50 0,0 C 2,4 C 90 % 1006,9 hPa 0,0 mm 0,0 km/h (0 Bft) S-SW 202 0 min -1,4 C 0,0 km/h (0 Bft)
16.04.2016 04:55 0,0 C 2,9 C 90 % 1006,9 hPa 0,0 mm 0,0 km/h (0 Bft) SO 135 0 min -1,4 C 0,0 km/h (0 Bft)
16.04.2016 05:00 0,0 C 3,0 C 91 % 1006,9 hPa 0,0 mm 0,3 km/h (0 Bft) S-SO 157 0 min -1,3 C 0,0 km/h (0 Bft)
16.04.2016 05:05 0,0 C 3,0 C 91 % 1006,9 hPa 0,0 mm 0,3 km/h (0 Bft) NO 45 0 min -1,3 C 0,0 km/h (0 Bft)
16.04.2016 05:10 0,0 C 2,9 C 91 % 1006,6 hPa 0,0 mm 0,0 km/h (0 Bft) N-NO 22 0 min -1,3 C 0,0 km/h (0 Bft)
16.04.2016 05:15 0,0 C 2,3 C 92 % 1006,6 hPa 0,0 mm 0,0 km/h (0 Bft) NW 315 0 min -1,1 C 0,0 km/h (0 Bft)
16.04.2016 05:20 0,0 C 2,3 C 92 % 1006,6 hPa 0,0 mm 0,0 km/h (0 Bft) O-NO 67 0 min -1,1 C 0,0 km/h (0 Bft)
16.04.2016 05:25 0,0 C 2,2 C 92 % 1006,6 hPa 0,0 mm 0,0 km/h (0 Bft) N-NW 337 0 min -1,1 C 0,0 km/h (0 Bft)
16.04.2016 05:30 0,0 C 2,1 C 92 % 1006,2 hPa 0,0 mm 0,0 km/h (0 Bft) NO 45 0 min -1,1 C 0,0 km/h (0 Bft)
16.04.2016 05:35 0,0 C 2,1 C 91 % 1006,2 hPa 0,0 mm 0,0 km/h (0 Bft) O-NO 67 0 min -1,3 C 0,0 km/h (0 Bft)
16.04.2016 05:40 0,0 C 2,4 C 92 % 1006,2 hPa 0,0 mm 0,0 km/h (0 Bft) SO 135 0 min -1,1 C 0,0 km/h (0 Bft)
16.04.2016 05:45 0,0 C 2,0 C 91 % 1006,2 hPa 0,0 mm 0,0 km/h (0 Bft) NO 45 0 min -1,3 C 0,0 km/h (0 Bft)
16.04.2016 05:50 0,0 C 2,2 C 92 % 1006,2 hPa 0,0 mm 0,0 km/h (0 Bft) O-SO 112 0 min -1,1 C 0,0 km/h (0 Bft)
16.04.2016 05:55 0,0 C 2,2 C 92 % 1006,2 hPa 0,0 mm 0,3 km/h (0 Bft) SW 225 0 min -1,1 C 3,0 km/h (1 Bft)
16.04.2016 06:00 0,0 C 2,4 C 92 % 1006,2 hPa 0,0 mm 0,3 km/h (0 Bft) O 90 0 min -1,1 C 0,0 km/h (0 Bft)
16.04.2016 06:05 0,0 C 2,1 C 92 % 1006,2 hPa 0,0 mm 0,3 km/h (0 Bft) W-NW 292 0 min -1,1 C 0,0 km/h (0 Bft)
16.04.2016 06:10 0,0 C 1,9 C 92 % 1006,2 hPa 0,0 mm 0,0 km/h (0 Bft) NW 315 0 min -1,1 C 0,0 km/h (0 Bft)
16.04.2016 06:15 0,0 C 1,8 C 91 % 1006,2 hPa 0,0 mm 0,0 km/h (0 Bft) W 270 0 min -1,3 C 0,0 km/h (0 Bft)
16.04.2016 06:20 0,0 C 1,7 C 91 % 1006,2 hPa 0,0 mm 0,0 km/h (0 Bft) W 270 0 min -1,3 C 0,0 km/h (0 Bft)
16.04.2016 06:25 0,0 C 1,7 C 91 % 1006,2 hPa 0,0 mm 0,0 km/h (0 Bft) S-SW 202 0 min -1,3 C 0,0 km/h (0 Bft)
16.04.2016 06:30 0,0 C 2,2 C 92 % 1006,2 hPa 0,0 mm 0,0 km/h (0 Bft) S-SO 157 0 min -1,1 C 0,0 km/h (0 Bft)
16.04.2016 06:35 0,0 C 2,2 C 92 % 1006,2 hPa 0,0 mm 0,0 km/h (0 Bft) S-SO 157 0 min -1,1 C 0,0 km/h (0 Bft)
16.04.2016 06:40 0,0 C 2,6 C 92 % 1006,2 hPa 0,0 mm 0,0 km/h (0 Bft) S-SO 157 0 min -1,1 C 0,0 km/h (0 Bft)
16.04.2016 06:45 0,0 C 2,4 C 92 % 1006,2 hPa 0,0 mm 0,3 km/h (0 Bft) W 270 0 min -1,1 C 0,0 km/h (0 Bft)
16.04.2016 06:50 0,0 C 2,2 C 92 % 1005,9 hPa 0,0 mm 0,3 km/h (0 Bft) W-SW 247 0 min -1,1 C 0,0 km/h (0 Bft)
16.04.2016 06:53 0,0 C 2,2 C 92 % 1005,9 hPa 0,0 mm 0,3 km/h (0 Bft) W-SW 247 0 min -1,1 C 6,6 km/h (2 Bft)
16.04.2016 06:55 0,0 C 2,2 C 92 % 1005,9 hPa 0,0 mm 0,3 km/h (0 Bft) W-SW 247 0 min -1,1 C 6,6 km/h (2 Bft)
16.04.2016 07:00 0,0 C 2,5 C 93 % 1005,9 hPa 0,0 mm 0,6 km/h (0 Bft) S-SO 157 0 min -1,0 C 0,0 km/h (0 Bft)
16.04.2016 07:05 0,0 C 2,8 C 93 % 1005,9 hPa 0,0 mm 0,6 km/h (0 Bft) W-NW 292 0 min -1,0 C 0,0 km/h (0 Bft)
16.04.2016 07:10 0,0 C 2,6 C 93 % 1006,2 hPa 0,0 mm 1,2 km/h (1 Bft) N 360 0 min -1,0 C 0,0 km/h (0 Bft)
16.04.2016 07:15 0,0 C 2,9 C 92 % 1006,2 hPa 0,0 mm 1,5 km/h (1 Bft) S-SO 157 0 min -1,1 C 0,0 km/h (0 Bft)
16.04.2016 07:20 0,0 C 3,2 C 92 % 1006,2 hPa 0,0 mm 0,3 km/h (0 Bft) S 180 0 min -1,1 C 0,0 km/h (0 Bft)
16.04.2016 07:25 0,0 C 3,9 C 92 % 1006,2 hPa 0,0 mm 0,0 km/h (0 Bft) N 360 0 min -1,1 C 0,0 km/h (0 Bft)
16.04.2016 07:30 0,0 C 4,2 C 92 % 1005,8 hPa 0,0 mm 0,0 km/h (0 Bft) NW 315 0 min -1,1 C 0,0 km/h (0 Bft)
16.04.2016 07:35 0,0 C 4,2 C 92 % 1005,8 hPa 0,0 mm 0,0 km/h (0 Bft) W-NW 292 0 min -1,1 C 0,0 km/h (0 Bft)
16.04.2016 07:40 0,0 C 4,4 C 92 % 1005,8 hPa 0,0 mm 0,0 km/h (0 Bft) NW 315 0 min -1,1 C 0,0 km/h (0 Bft)
16.04.2016 07:45 0,0 C 7,8 C 92 % 1005,8 hPa 0,0 mm 0,0 km/h (0 Bft) SW 225 5 min -1,1 C 0,0 km/h (0 Bft)
16.04.2016 07:50 0,0 C 9,5 C 92 % 1005,6 hPa 0,0 mm 0,0 km/h (0 Bft) W-NW 292 5 min -1,1 C 0,0 km/h (0 Bft)
16.04.2016 07:55 0,0 C 11,5 C 91 % 1005,6 hPa 0,0 mm 0,0 km/h (0 Bft) W-SW 247 5 min -1,3 C 0,0 km/h (0 Bft)
16.04.2016 08:00 0,0 C 12,8 C 91 % 1005,6 hPa 0,0 mm 0,0 km/h (0 Bft) W-SW 247 5 min -1,3 C 0,0 km/h (0 Bft)
16.04.2016 08:05 0,0 C 14,2 C 90 % 1005,6 hPa 0,0 mm 0,0 km/h (0 Bft) NW 315 5 min -1,4 C 0,0 km/h (0 Bft)
16.04.2016 08:10 0,0 C 14,8 C 90 % 1005,4 hPa 0,0 mm 0,0 km/h (0 Bft) N 360 5 min -1,4 C 0,0 km/h (0 Bft)
16.04.2016 08:15 0,0 C 15,3 C 88 % 1005,4 hPa 0,0 mm 0,6 km/h (0 Bft) NO 45 5 min -1,7 C 3,9 km/h (1 Bft)
16.04.2016 08:20 0,0 C 15,4 C 88 % 1005,4 hPa 0,0 mm 0,6 km/h (0 Bft) O-NO 67 5 min -1,7 C 0,0 km/h (0 Bft)
16.04.2016 08:25 0,0 C 15,2 C 86 % 1005,4 hPa 0,0 mm 1,8 km/h (1 Bft) O-NO 67 5 min -2,1 C 3,3 km/h (1 Bft)
16.04.2016 08:30 0,0 C 15,0 C 86 % 1005,2 hPa 0,0 mm 1,5 km/h (1 Bft) O-SO 112 5 min -2,1 C 0,0 km/h (0 Bft)
16.04.2016 08:35 0,0 C 15,5 C 81 % 1005,2 hPa 0,0 mm 0,9 km/h (0 Bft) O-NO 67 5 min -2,9 C 0,0 km/h (0 Bft)
16.04.2016 08:40 0,0 C 15,3 C 80 % 1005,2 hPa 0,0 mm 0,3 km/h (0 Bft) O-NO 67 5 min -3,0 C 3,6 km/h (1 Bft)
16.04.2016 08:45 10,1 C 15,7 C 80 % 1005,2 hPa 0,0 mm 1,2 km/h (1 Bft) NW 315 5 min 6,8 C 3,9 km/h (1 Bft)
16.04.2016 08:50 10,0 C 14,8 C 80 % 1005,6 hPa 0,0 mm 1,8 km/h (1 Bft) NW 315 5 min 6,7 C 6,3 km/h (2 Bft)
16.04.2016 08:55 9,9 C 14,2 C 79 % 1005,6 hPa 0,0 mm 3,6 km/h (1 Bft) W-NW 292 5 min 6,4 C 6,6 km/h (2 Bft)
16.04.2016 09:00 9,9 C 14,4 C 79 % 1005,6 hPa 0,0 mm 5,1 km/h (1 Bft) W-NW 292 5 min 6,4 C 7,2 km/h (2 Bft)
16.04.2016 09:05 10,5 C 15,0 C 78 % 1005,6 hPa 0,0 mm 5,4 km/h (1 Bft) W 270 5 min 6,8 C 6,3 km/h (2 Bft)
16.04.2016 09:10 10,8 C 16,1 C 78 % 1006,1 hPa 0,0 mm 6,0 km/h (2 Bft) W-NW 292 5 min 7,1 C 10,7 km/h (2 Bft)
16.04.2016 09:15 11,3 C 16,4 C 76 % 1006,1 hPa 0,0 mm 7,2 km/h (2 Bft) W-SW 247 5 min 7,2 C 15,2 km/h (3 Bft)
16.04.2016 09:20 11,4 C 16,4 C 75 % 1006,1 hPa 0,0 mm 8,6 km/h (2 Bft) W 270 5 min 7,1 C 7,2 km/h (2 Bft)
16.04.2016 09:25 12,0 C 17,2 C 75 % 1006,1 hPa 0,0 mm 8,9 km/h (2 Bft) NW 315 5 min 7,7 C 18,2 km/h (3 Bft)
16.04.2016 09:30 12,0 C 17,1 C 74 % 1006,8 hPa 0,0 mm 10,7 km/h (2 Bft) W 270 5 min 7,5 C 28,0 km/h (4 Bft)
16.04.2016 09:35 11,8 C 16,1 C 73 % 1006,8 hPa 0,0 mm 13,4 km/h (3 Bft) NW 315 5 min 7,1 C 31,6 km/h (5 Bft)
16.04.2016 09:40 11,7 C 16,0 C 73 % 1006,8 hPa 0,0 mm 14,3 km/h (3 Bft) W 270 5 min 7,0 C 12,5 km/h (3 Bft)
16.04.2016 09:45 11,8 C 16,2 C 72 % 1006,8 hPa 0,0 mm 12,5 km/h (3 Bft) W-NW 292 5 min 6,9 C 10,4 km/h (2 Bft)
16.04.2016 09:50 11,9 C 16,5 C 73 % 1008,0 hPa 0,0 mm 10,7 km/h (2 Bft) NW 315 5 min 7,2 C 14,6 km/h (3 Bft)
16.04.2016 09:53 12,4 C 17,2 C 71 % 1008,0 hPa 0,0 mm 12,2 km/h (2 Bft) W-SW 247 3 min 7,3 C 11,9 km/h (2 Bft)
16.04.2016 09:54 12,4 C 17,2 C 71 % 1008,0 hPa 0,0 mm 12,2 km/h (2 Bft) W-SW 247 1 min 7,3 C 11,9 km/h (2 Bft)
16.04.2016 09:55 12,4 C 17,2 C 71 % 1008,0 hPa 0,0 mm 12,2 km/h (2 Bft) W-SW 247 1 min 7,3 C 11,9 km/h (2 Bft)
16.04.2016 10:00 12,5 C 17,3 C 70 % 1008,0 hPa 0,0 mm 15,5 km/h (3 Bft) W-NW 292 5 min 7,2 C 23,8 km/h (4 Bft)
16.04.2016 10:05 12,1 C 16,3 C 69 % 1008,0 hPa 0,0 mm 15,8 km/h (3 Bft) W-SW 247 5 min 6,6 C 17,0 km/h (3 Bft)
16.04.2016 10:10 12,0 C 16,0 C 69 % 1008,9 hPa 0,0 mm 15,2 km/h (3 Bft) W-NW 292 5 min 6,5 C 18,8 km/h (3 Bft)
16.04.2016 10:15 12,5 C 16,8 C 69 % 1008,9 hPa 0,0 mm 12,2 km/h (2 Bft) S-SW 202 5 min 7,0 C 7,7 km/h (2 Bft)
16.04.2016 10:20 12,8 C 17,5 C 69 % 1008,9 hPa 0,0 mm 10,1 km/h (2 Bft) SW 225 5 min 7,3 C 9,2 km/h (2 Bft)
16.04.2016 10:25 12,9 C 18,1 C 68 % 1008,9 hPa 0,0 mm 11,0 km/h (2 Bft) W 270 5 min 7,1 C 14,9 km/h (3 Bft)
16.04.2016 10:30 12,9 C 17,5 C 68 % 1009,4 hPa 0,0 mm 11,3 km/h (2 Bft) W 270 5 min 7,1 C 11,3 km/h (2 Bft)
16.04.2016 10:35 13,2 C 17,6 C 66 % 1009,4 hPa 0,0 mm 11,3 km/h (2 Bft) W 270 5 min 7,0 C 20,0 km/h (4 Bft)
16.04.2016 10:40 13,5 C 17,4 C 66 % 1009,4 hPa 0,0 mm 11,3 km/h (2 Bft) NW 315 5 min 7,3 C 15,2 km/h (3 Bft)
16.04.2016 10:45 13,8 C 17,5 C 64 % 1009,4 hPa 0,0 mm 13,4 km/h (3 Bft) W-NW 292 5 min 7,1 C 29,5 km/h (5 Bft)
16.04.2016 10:50 13,7 C 17,0 C 64 % 1009,5 hPa 0,0 mm 15,2 km/h (3 Bft) S-SW 202 5 min 7,0 C 20,6 km/h (4 Bft)
16.04.2016 10:55 13,5 C 16,7 C 63 % 1009,5 hPa 0,0 mm 16,4 km/h (3 Bft) W 270 0 min 6,6 C 26,8 km/h (4 Bft)
16.04.2016 11:00 13,7 C 17,2 C 63 % 1009,5 hPa 0,0 mm 14,6 km/h (3 Bft) N 360 0 min 6,8 C 14,6 km/h (3 Bft)
16.04.2016 11:05 14,0 C 17,7 C 63 % 1009,5 hPa 0,0 mm 14,6 km/h (3 Bft) O 90 5 min 7,1 C 34,3 km/h (5 Bft)
16.04.2016 11:10 14,0 C 17,8 C 62 % 1009,3 hPa 0,0 mm 15,5 km/h (3 Bft) W 270 5 min 6,8 C 17,9 km/h (3 Bft)
16.04.2016 11:15 13,9 C 17,4 C 63 % 1009,3 hPa 0,0 mm 14,9 km/h (3 Bft) W-SW 247 5 min 7,0 C 16,1 km/h (3 Bft)
16.04.2016 11:20 13,6 C 16,6 C 63 % 1009,3 hPa 0,0 mm 16,1 km/h (3 Bft) W-NW 292 5 min 6,7 C 15,8 km/h (3 Bft)
16.04.2016 11:25 12,9 C 15,3 C 64 % 1009,3 hPa 0,0 mm 20,6 km/h (4 Bft) NW 315 0 min 6,3 C 38,4 km/h (5 Bft)
16.04.2016 11:30 12,8 C 14,1 C 64 % 1009,3 hPa 0,0 mm 20,3 km/h (4 Bft) W 270 0 min 6,2 C 21,2 km/h (4 Bft)
16.04.2016 11:35 12,5 C 13,6 C 65 % 1009,3 hPa 0,0 mm 18,5 km/h (3 Bft) W-NW 292 0 min 6,1 C 20,9 km/h (4 Bft)
16.04.2016 11:40 12,4 C 13,4 C 65 % 1009,3 hPa 0,0 mm 19,7 km/h (3 Bft) W 270 0 min 6,0 C 37,0 km/h (5 Bft)
16.04.2016 11:45 12,5 C 13,4 C 66 % 1009,3 hPa 0,0 mm 21,5 km/h (4 Bft) W 270 0 min 6,3 C 26,5 km/h (4 Bft)
16.04.2016 11:50 12,6 C 13,8 C 66 % 1009,4 hPa 0,0 mm 20,0 km/h (4 Bft) W 270 0 min 6,4 C 22,9 km/h (4 Bft)
16.04.2016 11:55 12,9 C 14,4 C 66 % 1009,4 hPa 0,0 mm 19,1 km/h (3 Bft) W 270 0 min 6,7 C 26,8 km/h (4 Bft)
16.04.2016 12:00 12,7 C 14,2 C 66 % 1009,4 hPa 0,0 mm 19,1 km/h (3 Bft) W 270 0 min 6,5 C 18,2 km/h (3 Bft)
16.04.2016 12:05 12,5 C 13,4 C 67 % 1009,4 hPa 0,0 mm 18,2 km/h (3 Bft) N-NW 337 0 min 6,5 C 18,5 km/h (3 Bft)
16.04.2016 12:10 12,3 C 13,0 C 67 % 1009,4 hPa 0,0 mm 16,7 km/h (3 Bft) NW 315 0 min 6,4 C 29,5 km/h (5 Bft)
16.04.2016 12:15 12,3 C 12,8 C 68 % 1009,4 hPa 0,0 mm 14,6 km/h (3 Bft) W 270 0 min 6,6 C 15,5 km/h (3 Bft)
16.04.2016 12:20 12,3 C 12,8 C 68 % 1009,4 hPa 0,0 mm 14,6 km/h (3 Bft) W-SW 247 0 min 6,6 C 14,6 km/h (3 Bft)
16.04.2016 12:25 11,8 C 12,3 C 69 % 1009,4 hPa 0,0 mm 13,7 km/h (3 Bft) W-NW 292 0 min 6,3 C 11,6 km/h (2 Bft)
16.04.2016 12:30 11,8 C 11,9 C 69 % 1009,3 hPa 0,0 mm 13,4 km/h (3 Bft) NW 315 0 min 6,3 C 21,5 km/h (4 Bft)
16.04.2016 12:35 11,5 C 11,7 C 70 % 1009,3 hPa 0,0 mm 11,9 km/h (2 Bft) W-SW 247 0 min 6,2 C 13,4 km/h (3 Bft)
16.04.2016 12:40 11,3 C 11,4 C 70 % 1009,3 hPa 0,0 mm 11,3 km/h (2 Bft) W-SW 247 0 min 6,0 C 25,3 km/h (4 Bft)
16.04.2016 12:45 11,1 C 11,1 C 71 % 1009,3 hPa 0,0 mm 12,2 km/h (2 Bft) W-SW 247 0 min 6,0 C 8,3 km/h (2 Bft)
16.04.2016 12:50 11,1 C 11,0 C 72 % 1009,4 hPa 0,0 mm 11,6 km/h (2 Bft) W-SW 247 0 min 6,2 C 16,7 km/h (3 Bft)
16.04.2016 12:53 10,9 C 10,8 C 73 % 1009,4 hPa 0,0 mm 10,1 km/h (2 Bft) O-NO 67 0 min 6,3 C 8,0 km/h (2 Bft)
16.04.2016 12:55 10,9 C 10,8 C 73 % 1009,4 hPa 0,0 mm 10,1 km/h (2 Bft) O-NO 67 0 min 6,3 C 8,0 km/h (2 Bft)
16.04.2016 13:00 10,9 C 10,8 C 74 % 1009,4 hPa 0,0 mm 10,1 km/h (2 Bft) W-SW 247 0 min 6,5 C 9,5 km/h (2 Bft)
16.04.2016 13:05 11,0 C 11,5 C 74 % 1009,4 hPa 0,0 mm 9,5 km/h (2 Bft) W 270 0 min 6,5 C 8,0 km/h (2 Bft)
16.04.2016 13:10 11,3 C 12,3 C 75 % 1009,0 hPa 0,0 mm 8,9 km/h (2 Bft) W-SW 247 0 min 7,0 C 12,8 km/h (3 Bft)
16.04.2016 13:15 12,6 C 14,4 C 75 % 1009,0 hPa 0,0 mm 8,3 km/h (2 Bft) W 270 0 min 8,3 C 11,3 km/h (2 Bft)
16.04.2016 13:20 12,3 C 14,9 C 74 % 1009,0 hPa 0,0 mm 9,5 km/h (2 Bft) W-SW 247 0 min 7,8 C 11,3 km/h (2 Bft)
16.04.2016 13:25 12,0 C 14,2 C 74 % 1009,0 hPa 0,0 mm 9,2 km/h (2 Bft) SW 225 0 min 7,5 C 6,9 km/h (2 Bft)
16.04.2016 13:30 12,0 C 14,0 C 74 % 1009,5 hPa 0,0 mm 8,0 km/h (2 Bft) SW 225 0 min 7,5 C 7,7 km/h (2 Bft)
16.04.2016 13:35 11,8 C 13,2 C 73 % 1009,5 hPa 0,0 mm 9,8 km/h (2 Bft) W 270 0 min 7,1 C 11,3 km/h (2 Bft)
16.04.2016 13:40 11,7 C 13,1 C 73 % 1009,5 hPa 0,0 mm 10,1 km/h (2 Bft) O-SO 112 0 min 7,0 C 11,6 km/h (2 Bft)
16.04.2016 13:45 11,8 C 13,0 C 73 % 1009,5 hPa 0,0 mm 7,5 km/h (2 Bft) W 270 0 min 7,1 C 4,5 km/h (1 Bft)
16.04.2016 13:50 11,9 C 13,5 C 73 % 1008,8 hPa 0,0 mm 6,9 km/h (2 Bft) W 270 0 min 7,2 C 8,0 km/h (2 Bft)
16.04.2016 13:55 12,9 C 15,5 C 72 % 1008,8 hPa 0,0 mm 5,4 km/h (1 Bft) W-SW 247 0 min 8,0 C 6,0 km/h (2 Bft)
16.04.2016 14:00 13,3 C 16,8 C 71 % 1008,8 hPa 0,0 mm 5,4 km/h (1 Bft) N-NW 337 0 min 8,2 C 6,9 km/h (2 Bft)
16.04.2016 14:05 14,0 C 18,0 C 70 % 1008,8 hPa 0,0 mm 5,4 km/h (1 Bft) NW 315 0 min 8,6 C 9,2 km/h (2 Bft)
16.04.2016 14:10 14,2 C 18,5 C 70 % 1008,6 hPa 0,0 mm 6,3 km/h (2 Bft) NW 315 0 min 8,8 C 10,7 km/h (2 Bft)
16.04.2016 14:15 14,3 C 18,2 C 69 % 1008,6 hPa 0,0 mm 6,9 km/h (2 Bft) N-NO 22 0 min 8,7 C 13,7 km/h (3 Bft)
16.04.2016 14:20 14,1 C 18,3 C 69 % 1008,6 hPa 0,0 mm 6,3 km/h (2 Bft) O-NO 67 5 min 8,5 C 6,9 km/h (2 Bft)
16.04.2016 14:25 14,4 C 18,3 C 69 % 1008,6 hPa 0,0 mm 5,1 km/h (1 Bft) W-SW 247 0 min 8,8 C 0,0 km/h (0 Bft)
16.04.2016 14:30 14,5 C 19,2 C 69 % 1008,6 hPa 0,0 mm 4,8 km/h (1 Bft) NO 45 5 min 8,9 C 16,4 km/h (3 Bft)
16.04.2016 14:35 14,5 C 18,3 C 67 % 1008,6 hPa 0,0 mm 7,2 km/h (2 Bft) N-NO 22 5 min 8,4 C 10,1 km/h (2 Bft)
16.04.2016 14:40 14,6 C 18,0 C 66 % 1008,6 hPa 0,0 mm 8,9 km/h (2 Bft) N-NO 22 0 min 8,3 C 7,7 km/h (2 Bft)
16.04.2016 14:45 15,2 C 18,9 C 66 % 1008,6 hPa 0,0 mm 6,9 km/h (2 Bft) N-NW 337 0 min 8,9 C 8,9 km/h (2 Bft)
16.04.2016 14:50 15,5 C 20,1 C 66 % 1008,4 hPa 0,0 mm 6,9 km/h (2 Bft) N-NO 22 0 min 9,2 C 12,5 km/h (3 Bft)
16.04.2016 14:55 15,8 C 21,0 C 64 % 1008,4 hPa 0,0 mm 8,3 km/h (2 Bft) O-NO 67 5 min 9,0 C 8,9 km/h (2 Bft)
16.04.2016 15:00 15,9 C 21,3 C 63 % 1008,4 hPa 0,0 mm 8,3 km/h (2 Bft) O-SO 112 5 min 8,9 C 6,0 km/h (2 Bft)
16.04.2016 15:05 16,5 C 22,3 C 61 % 1008,4 hPa 0,0 mm 6,6 km/h (2 Bft) NW 315 5 min 9,0 C 17,0 km/h (3 Bft)
16.04.2016 15:10 16,6 C 22,5 C 61 % 1008,2 hPa 0,0 mm 7,2 km/h (2 Bft) N-NO 22 5 min 9,0 C 12,2 km/h (2 Bft)
16.04.2016 15:15 16,5 C 21,9 C 60 % 1008,2 hPa 0,0 mm 9,8 km/h (2 Bft) N-NO 22 5 min 8,7 C 15,8 km/h (3 Bft)
16.04.2016 15:20 16,1 C 21,2 C 60 % 1008,2 hPa 0,0 mm 9,5 km/h (2 Bft) O-NO 67 5 min 8,3 C 4,5 km/h (1 Bft)
16.04.2016 15:25 15,9 C 19,7 C 61 % 1008,2 hPa 0,0 mm 10,4 km/h (2 Bft) NO 45 5 min 8,4 C 10,1 km/h (2 Bft)
16.04.2016 15:30 15,9 C 19,6 C 61 % 1008,1 hPa 0,0 mm 8,6 km/h (2 Bft) SW 225 5 min 8,4 C 4,5 km/h (1 Bft)
16.04.2016 15:35 16,0 C 20,0 C 60 % 1008,1 hPa 0,0 mm 5,1 km/h (1 Bft) N-NW 337 5 min 8,2 C 10,7 km/h (2 Bft)
16.04.2016 15:40 16,1 C 19,4 C 60 % 1008,1 hPa 0,0 mm 5,7 km/h (1 Bft) W-NW 292 5 min 8,3 C 13,4 km/h (3 Bft)
16.04.2016 15:45 16,7 C 19,9 C 59 % 1008,1 hPa 0,0 mm 9,5 km/h (2 Bft) N-NW 337 0 min 8,6 C 11,9 km/h (2 Bft)
16.04.2016 15:50 16,8 C 20,5 C 59 % 1008,2 hPa 0,0 mm 8,9 km/h (2 Bft) N-NO 22 5 min 8,7 C 4,2 km/h (1 Bft)
16.04.2016 15:53 16,3 C 19,4 C 59 % 1008,2 hPa 0,0 mm 7,5 km/h (2 Bft) W-NW 292 3 min 8,3 C 10,4 km/h (2 Bft)
16.04.2016 15:56 16,3 C 19,4 C 59 % 1008,2 hPa 0,0 mm 7,5 km/h (2 Bft) W-NW 292 3 min 8,3 C 10,4 km/h (2 Bft)
16.04.2016 16:00 16,1 C 18,8 C 59 % 1008,2 hPa 0,0 mm 8,9 km/h (2 Bft) W-NW 292 0 min 8,1 C 12,2 km/h (2 Bft)
16.04.2016 16:05 15,7 C 17,8 C 60 % 1008,2 hPa 0,0 mm 11,9 km/h (2 Bft) W-NW 292 0 min 8,0 C 13,7 km/h (3 Bft)
16.04.2016 16:10 15,7 C 17,7 C 61 % 1008,2 hPa 0,0 mm 11,3 km/h (2 Bft) NW 315 0 min 8,2 C 7,7 km/h (2 Bft)
16.04.2016 16:15 16,0 C 18,0 C 60 % 1008,2 hPa 0,0 mm 11,0 km/h (2 Bft) NW 315 0 min 8,2 C 18,5 km/h (3 Bft)
16.04.2016 16:20 16,1 C 18,9 C 59 % 1008,2 hPa 0,0 mm 10,4 km/h (2 Bft) NW 315 0 min 8,1 C 10,7 km/h (2 Bft)
16.04.2016 16:25 16,3 C 19,8 C 59 % 1008,2 hPa 0,0 mm 8,9 km/h (2 Bft) NW 315 5 min 8,3 C 4,5 km/h (1 Bft)
16.04.2016 16:30 16,3 C 19,7 C 59 % 1008,2 hPa 0,0 mm 6,9 km/h (2 Bft) NW 315 5 min 8,3 C 8,9 km/h (2 Bft)
16.04.2016 16:35 16,4 C 20,0 C 59 % 1008,2 hPa 0,0 mm 6,6 km/h (2 Bft) W 270 5 min 8,4 C 9,8 km/h (2 Bft)
16.04.2016 16:40 16,5 C 20,7 C 59 % 1008,2 hPa 0,0 mm 7,2 km/h (2 Bft) NW 315 5 min 8,5 C 8,9 km/h (2 Bft)
16.04.2016 16:45 16,7 C 20,9 C 59 % 1008,2 hPa 0,0 mm 6,3 km/h (2 Bft) NW 315 5 min 8,6 C 9,2 km/h (2 Bft)
16.04.2016 16:50 16,7 C 20,4 C 59 % 1008,5 hPa 0,0 mm 5,4 km/h (1 Bft) O-NO 67 5 min 8,6 C 3,9 km/h (1 Bft)
16.04.2016 16:55 16,4 C 20,0 C 58 % 1008,5 hPa 0,0 mm 6,9 km/h (2 Bft) W 270 5 min 8,1 C 7,7 km/h (2 Bft)
16.04.2016 17:00 16,4 C 20,5 C 58 % 1008,5 hPa 0,0 mm 5,7 km/h (1 Bft) W 270 5 min 8,1 C 3,6 km/h (1 Bft)
16.04.2016 17:05 16,6 C 21,2 C 58 % 1008,5 hPa 0,0 mm 4,5 km/h (1 Bft) W-NW 292 5 min 8,3 C 3,9 km/h (1 Bft)
16.04.2016 17:10 16,7 C 21,3 C 58 % 1008,4 hPa 0,0 mm 5,7 km/h (1 Bft) NW 315 5 min 8,4 C 10,1 km/h (2 Bft)
16.04.2016 17:15 16,8 C 20,7 C 58 % 1008,4 hPa 0,0 mm 7,5 km/h (2 Bft) N 360 5 min 8,5 C 6,3 km/h (2 Bft)
16.04.2016 17:20 16,8 C 20,4 C 58 % 1008,4 hPa 0,0 mm 8,0 km/h (2 Bft) W-NW 292 5 min 8,5 C 8,3 km/h (2 Bft)
16.04.2016 17:25 16,6 C 19,7 C 58 % 1008,4 hPa 0,0 mm 7,7 km/h (2 Bft) N-NO 22 5 min 8,3 C 10,1 km/h (2 Bft)
16.04.2016 17:30 16,6 C 19,0 C 58 % 1008,4 hPa 0,0 mm 9,2 km/h (2 Bft) NW 315 0 min 8,3 C 8,6 km/h (2 Bft)
16.04.2016 17:35 16,5 C 18,1 C 58 % 1008,4 hPa 0,0 mm 10,7 km/h (2 Bft) NW 315 0 min 8,2 C 10,1 km/h (2 Bft)
16.04.2016 17:40 16,5 C 18,0 C 58 % 1008,4 hPa 0,0 mm 10,4 km/h (2 Bft) N-NO 22 0 min 8,2 C 12,8 km/h (3 Bft)
16.04.2016 17:45 16,4 C 17,7 C 58 % 1008,4 hPa 0,0 mm 8,6 km/h (2 Bft) NW 315 0 min 8,1 C 9,8 km/h (2 Bft)
16.04.2016 17:50 16,3 C 17,7 C 58 % 1008,1 hPa 0,0 mm 8,9 km/h (2 Bft) W-NW 292 0 min 8,0 C 9,2 km/h (2 Bft)
16.04.2016 17:55 15,9 C 17,1 C 58 % 1008,1 hPa 0,0 mm 9,2 km/h (2 Bft) N-NW 337 0 min 7,6 C 3,0 km/h (1 Bft)
16.04.2016 18:00 15,6 C 16,6 C 58 % 1008,1 hPa 0,0 mm 10,1 km/h (2 Bft) NW 315 0 min 7,4 C 16,4 km/h (3 Bft)
16.04.2016 18:05 15,2 C 15,8 C 59 % 1008,1 hPa 0,0 mm 9,2 km/h (2 Bft) NW 315 0 min 7,2 C 6,6 km/h (2 Bft)
16.04.2016 18:10 15,2 C 15,6 C 59 % 1008,1 hPa 0,0 mm 8,0 km/h (2 Bft) NW 315 0 min 7,2 C 3,0 km/h (1 Bft)
16.04.2016 18:15 15,4 C 15,8 C 59 % 1008,1 hPa 0,0 mm 6,3 km/h (2 Bft) NW 315 0 min 7,4 C 6,6 km/h (2 Bft)
16.04.2016 18:20 15,3 C 15,9 C 59 % 1008,1 hPa 0,0 mm 6,6 km/h (2 Bft) NW 315 0 min 7,3 C 6,3 km/h (2 Bft)
16.04.2016 18:25 15,2 C 15,7 C 59 % 1008,1 hPa 0,0 mm 7,2 km/h (2 Bft) W-NW 292 0 min 7,2 C 17,6 km/h (3 Bft)
16.04.2016 18:30 15,1 C 15,5 C 59 % 1008,1 hPa 0,0 mm 7,7 km/h (2 Bft) N-NO 22 0 min 7,1 C 14,3 km/h (3 Bft)
16.04.2016 18:35 14,6 C 15,0 C 59 % 1008,1 hPa 0,0 mm 8,9 km/h (2 Bft) N 360 0 min 6,7 C 9,5 km/h (2 Bft)
16.04.2016 18:40 14,4 C 14,9 C 59 % 1008,1 hPa 0,0 mm 6,9 km/h (2 Bft) W 270 0 min 6,5 C 3,3 km/h (1 Bft)
16.04.2016 18:45 14,1 C 14,5 C 60 % 1008,1 hPa 0,0 mm 4,5 km/h (1 Bft) NW 315 0 min 6,5 C 6,6 km/h (2 Bft)
16.04.2016 18:50 13,9 C 14,3 C 60 % 1007,8 hPa 0,0 mm 3,3 km/h (1 Bft) NW 315 0 min 6,3 C 3,6 km/h (1 Bft)
16.04.2016 18:55 13,5 C 13,9 C 61 % 1007,8 hPa 0,0 mm 0,9 km/h (0 Bft) N-NO 22 0 min 6,1 C 3,3 km/h (1 Bft)
16.04.2016 18:57 13,5 C 13,9 C 61 % 1007,8 hPa 0,0 mm 0,9 km/h (0 Bft) N-NO 22 0 min 6,1 C 3,3 km/h (1 Bft)
16.04.2016 19:00 13,7 C 14,0 C 61 % 1007,8 hPa 0,0 mm 0,9 km/h (0 Bft) NW 315 0 min 6,3 C 0,0 km/h (0 Bft)
16.04.2016 19:05 13,7 C 14,0 C 61 % 1007,8 hPa 0,0 mm 3,9 km/h (1 Bft) NW 315 0 min 6,3 C 7,2 km/h (2 Bft)
16.04.2016 19:10 13,8 C 14,2 C 61 % 1007,9 hPa 0,0 mm 4,8 km/h (1 Bft) NW 315 0 min 6,4 C 3,3 km/h (1 Bft)
16.04.2016 19:15 14,0 C 14,7 C 60 % 1007,9 hPa 0,0 mm 3,6 km/h (1 Bft) N-NO 22 0 min 6,4 C 8,9 km/h (2 Bft)
16.04.2016 19:20 14,0 C 15,0 C 60 % 1007,9 hPa 0,0 mm 2,7 km/h (1 Bft) NO 45 0 min 6,4 C 0,0 km/h (0 Bft)
16.04.2016 19:25 13,9 C 15,0 C 60 % 1007,9 hPa 0,0 mm 3,3 km/h (1 Bft) NW 315 0 min 6,3 C 3,9 km/h (1 Bft)
16.04.2016 19:30 13,9 C 15,0 C 60 % 1007,8 hPa 0,0 mm 2,1 km/h (1 Bft) NW 315 0 min 6,3 C 0,0 km/h (0 Bft)
16.04.2016 19:35 13,7 C 15,1 C 59 % 1007,8 hPa 0,0 mm 2,7 km/h (1 Bft) N-NW 337 0 min 5,8 C 5,7 km/h (1 Bft)
16.04.2016 19:40 13,3 C 15,0 C 59 % 1007,8 hPa 0,0 mm 1,8 km/h (1 Bft) N-NO 22 0 min 5,5 C 5,4 km/h (1 Bft)
16.04.2016 19:45 12,9 C 14,7 C 60 % 1007,8 hPa 0,0 mm 0,6 km/h (0 Bft) N-NW 337 0 min 5,3 C 0,0 km/h (0 Bft)
16.04.2016 19:50 12,8 C 14,2 C 60 % 1007,9 hPa 0,0 mm 0,3 km/h (0 Bft) N-NW 337 0 min 5,2 C 0,0 km/h (0 Bft)
16.04.2016 19:55 12,2 C 13,2 C 63 % 1007,9 hPa 0,0 mm 0,0 km/h (0 Bft) N-NW 337 0 min 5,4 C 0,0 km/h (0 Bft)
16.04.2016 20:00 12,1 C 12,4 C 64 % 1007,9 hPa 0,0 mm 0,0 km/h (0 Bft) W-SW 247 0 min 5,5 C 3,0 km/h (1 Bft)
16.04.2016 20:05 11,9 C 11,9 C 65 % 1007,9 hPa 0,0 mm 0,0 km/h (0 Bft) S-SO 157 0 min 5,5 C 0,0 km/h (0 Bft)
16.04.2016 20:10 11,6 C 11,6 C 65 % 1008,0 hPa 0,0 mm 0,3 km/h (0 Bft) S 180 0 min 5,2 C 0,0 km/h (0 Bft)
16.04.2016 20:15 11,3 C 11,3 C 66 % 1008,0 hPa 0,0 mm 0,9 km/h (0 Bft) S-SO 157 0 min 5,2 C 4,2 km/h (1 Bft)
16.04.2016 20:20 10,9 C 11,1 C 67 % 1008,0 hPa 0,0 mm 1,5 km/h (1 Bft) SO 135 0 min 5,0 C 0,0 km/h (0 Bft)
16.04.2016 20:25 10,7 C 10,7 C 68 % 1008,0 hPa 0,0 mm 1,8 km/h (1 Bft) O-SO 112 0 min 5,0 C 0,0 km/h (0 Bft)
16.04.2016 20:30 10,5 C 10,6 C 68 % 1007,8 hPa 0,0 mm 0,9 km/h (0 Bft) S 180 0 min 4,8 C 3,9 km/h (1 Bft)
16.04.2016 20:35 10,4 C 10,4 C 70 % 1007,8 hPa 0,0 mm 2,7 km/h (1 Bft) S-SO 157 0 min 5,2 C 5,1 km/h (1 Bft)
16.04.2016 20:40 10,4 C 10,4 C 70 % 1007,8 hPa 0,0 mm 3,3 km/h (1 Bft) SO 135 0 min 5,2 C 0,0 km/h (0 Bft)
16.04.2016 20:45 9,9 C 9,9 C 71 % 1007,8 hPa 0,0 mm 0,9 km/h (0 Bft) S-SO 157 0 min 4,9 C 0,0 km/h (0 Bft)
16.04.2016 20:50 9,5 C 9,6 C 71 % 1007,8 hPa 0,0 mm 0,0 km/h (0 Bft) O-NO 67 0 min 4,5 C 0,0 km/h (0 Bft)
16.04.2016 20:55 9,4 C 9,4 C 72 % 1007,8 hPa 0,0 mm 0,0 km/h (0 Bft) S-SO 157 0 min 4,6 C 0,0 km/h (0 Bft)
16.04.2016 21:00 9,1 C 9,1 C 72 % 1007,8 hPa 0,0 mm 0,3 km/h (0 Bft) W-NW 292 0 min 4,3 C 0,0 km/h (0 Bft)
16.04.2016 21:05 8,9 C 8,7 C 75 % 1007,8 hPa 0,0 mm 0,0 km/h (0 Bft) O-SO 112 0 min 4,7 C 0,0 km/h (0 Bft)
16.04.2016 21:10 8,6 C 8,4 C 75 % 1007,6 hPa 0,0 mm 0,0 km/h (0 Bft) O-SO 112 0 min 4,4 C 0,0 km/h (0 Bft)
16.04.2016 21:15 8,1 C 7,9 C 75 % 1007,6 hPa 0,0 mm 0,6 km/h (0 Bft) O 90 0 min 3,9 C 0,0 km/h (0 Bft)
16.04.2016 21:20 8,1 C 7,8 C 76 % 1007,6 hPa 0,0 mm 0,6 km/h (0 Bft) S 180 0 min 4,1 C 0,0 km/h (0 Bft)
16.04.2016 21:25 8,5 C 8,2 C 76 % 1007,6 hPa 0,0 mm 2,1 km/h (1 Bft) S-SO 157 0 min 4,5 C 6,3 km/h (2 Bft)
16.04.2016 21:30 8,5 C 8,4 C 76 % 1007,6 hPa 0,0 mm 2,4 km/h (1 Bft) SO 135 0 min 4,5 C 0,0 km/h (0 Bft)
16.04.2016 21:35 8,9 C 8,5 C 79 % 1007,6 hPa 0,0 mm 0,9 km/h (0 Bft) S 180 0 min 5,5 C 0,0 km/h (0 Bft)
16.04.2016 21:40 8,5 C 8,3 C 78 % 1007,6 hPa 0,0 mm 0,0 km/h (0 Bft) NO 45 0 min 4,9 C 0,0 km/h (0 Bft)
16.04.2016 21:45 8,0 C 7,8 C 78 % 1007,6 hPa 0,0 mm 0,0 km/h (0 Bft) S 180 0 min 4,4 C 0,0 km/h (0 Bft)
16.04.2016 21:50 7,8 C 7,6 C 78 % 1007,4 hPa 0,0 mm 0,0 km/h (0 Bft) N 360 0 min 4,2 C 0,0 km/h (0 Bft)
16.04.2016 21:55 7,7 C 7,4 C 79 % 1007,4 hPa 0,0 mm 0,0 km/h (0 Bft) S-SO 157 0 min 4,3 C 0,0 km/h (0 Bft)
16.04.2016 21:58 7,7 C 7,4 C 79 % 1007,4 hPa 0,0 mm 0,0 km/h (0 Bft) S-SO 157 0 min 4,3 C 0,0 km/h (0 Bft)
16.04.2016 22:00 7,8 C 7,5 C 81 % 1007,4 hPa 0,0 mm 0,0 km/h (0 Bft) S-SO 157 0 min 4,7 C 0,0 km/h (0 Bft)
16.04.2016 22:05 7,4 C 7,2 C 80 % 1007,4 hPa 0,0 mm 0,0 km/h (0 Bft) W-SW 247 0 min 4,2 C 0,0 km/h (0 Bft)
16.04.2016 22:10 7,2 C 7,0 C 80 % 1007,1 hPa 0,0 mm 0,0 km/h (0 Bft) S-SO 157 0 min 4,0 C 0,0 km/h (0 Bft)
16.04.2016 22:15 7,8 C 7,5 C 83 % 1007,1 hPa 0,0 mm 0,6 km/h (0 Bft) N 360 0 min 5,1 C 0,0 km/h (0 Bft)
16.04.2016 22:20 7,3 C 7,2 C 81 % 1007,1 hPa 0,0 mm 0,6 km/h (0 Bft) N-NO 22 0 min 4,3 C 0,0 km/h (0 Bft)
16.04.2016 22:25 7,3 C 7,1 C 81 % 1007,1 hPa 0,0 mm 0,0 km/h (0 Bft) S-SW 202 0 min 4,3 C 0,0 km/h (0 Bft)
16.04.2016 22:30 7,3 C 7,1 C 82 % 1006,9 hPa 0,0 mm 0,0 km/h (0 Bft) O 90 0 min 4,4 C 0,0 km/h (0 Bft)
16.04.2016 22:35 7,4 C 7,3 C 83 % 1006,9 hPa 0,0 mm 0,0 km/h (0 Bft) S-SO 157 0 min 4,7 C 0,0 km/h (0 Bft)
16.04.2016 22:40 7,3 C 7,2 C 82 % 1006,9 hPa 0,0 mm 0,0 km/h (0 Bft) O-NO 67 0 min 4,4 C 0,0 km/h (0 Bft)
16.04.2016 22:45 7,6 C 7,4 C 83 % 1006,9 hPa 0,0 mm 0,3 km/h (0 Bft) NO 45 0 min 4,9 C 0,0 km/h (0 Bft)
16.04.2016 22:50 7,4 C 7,3 C 83 % 1006,7 hPa 0,0 mm 0,3 km/h (0 Bft) NW 315 0 min 4,7 C 0,0 km/h (0 Bft)
16.04.2016 22:55 7,0 C 7,0 C 82 % 1006,7 hPa 0,0 mm 0,0 km/h (0 Bft) SO 135 0 min 4,1 C 0,0 km/h (0 Bft)
16.04.2016 23:00 6,8 C 6,9 C 82 % 1006,7 hPa 0,0 mm 0,0 km/h (0 Bft) NO 45 0 min 3,9 C 0,0 km/h (0 Bft)
16.04.2016 23:05 6,7 C 6,7 C 82 % 1006,7 hPa 0,0 mm 0,0 km/h (0 Bft) SO 135 0 min 3,8 C 0,0 km/h (0 Bft)
16.04.2016 23:10 6,7 C 6,7 C 82 % 1006,4 hPa 0,0 mm 0,0 km/h (0 Bft) SO 135 0 min 3,8 C 0,0 km/h (0 Bft)
16.04.2016 23:15 7,6 C 7,4 C 80 % 1006,4 hPa 0,0 mm 0,6 km/h (0 Bft) SO 135 0 min 4,4 C 4,5 km/h (1 Bft)
16.04.2016 23:20 7,9 C 7,6 C 86 % 1006,4 hPa 0,0 mm 0,9 km/h (0 Bft) O-SO 112 0 min 5,7 C 0,0 km/h (0 Bft)
16.04.2016 23:25 7,7 C 7,4 C 86 % 1006,4 hPa 0,0 mm 0,9 km/h (0 Bft) O-SO 112 0 min 5,5 C 3,3 km/h (1 Bft)
16.04.2016 23:30 7,5 C 7,3 C 86 % 1005,9 hPa 0,0 mm 0,6 km/h (0 Bft) O-SO 112 0 min 5,3 C 0,0 km/h (0 Bft)
16.04.2016 23:35 7,1 C 7,0 C 85 % 1005,9 hPa 0,0 mm 0,3 km/h (0 Bft) O-SO 112 0 min 4,8 C 0,0 km/h (0 Bft)
16.04.2016 23:40 6,8 C 6,7 C 85 % 1005,9 hPa 0,0 mm 0,3 km/h (0 Bft) SO 135 0 min 4,5 C 0,0 km/h (0 Bft)
16.04.2016 23:45 7,0 C 6,9 C 85 % 1005,9 hPa 0,0 mm 0,3 km/h (0 Bft) O-NO 67 0 min 4,7 C 0,0 km/h (0 Bft)
16.04.2016 23:50 6,7 C 6,7 C 85 % 1005,6 hPa 0,0 mm 0,3 km/h (0 Bft) S-SW 202 0 min 4,4 C 0,0 km/h (0 Bft)
16.04.2016 23:55 6,3 C 6,3 C 85 % 1005,6 hPa 0,0 mm 0,3 km/h (0 Bft) SO 135 0 min 4,0 C 0,0 km/h (0 Bft)
_ Min-Zeit 08:40 06:25 18:00 08:45 - 23:10 - - - 08:40 23:55
Minimum _ 0,0 C 1,7 C 58 % 1005,2 hPa - 0,0 km/h (0 Bft) - - - -3,0 C 0,0 km/h (0 Bft)
_ Max-Zeit 17:20 15:10 07:10 13:45 23:55 11:45 - - 17:25 14:50 11:25
Maximum _ 16,8 C 22,5 C 93 % 1009,5 hPa 0,0 mm 21,5 km/h
W (4 Bft)
- - 5 min 9,2 C 38,4 km/h
NW (5 Bft)
Durchschnitt _ 8,1 C 11,0 C 76 % 1007,7 hPa #0,0 mm 4,6 km/h (1 Bft) NW - #5:51 h 3,9 C 5,8 km/h (2 Bft)